,,,PA_Meas_PMT16A,,PR_Meas_QMR101_102,,RH_Meas_QMH101,,SR_Meas_QMS101,,TA_Meas_QMH101,,GenWind,,GenWind,
date,time,status,PA,status,PR,status,RH,status,SR,status,TA,status,DirAvg,status,SpdAvg,
2012-06-09, 00:00:04,VALID,1005.37,VALID,0,VALID,92.4391,VALID,0,VALID,23.8185,VALID,352,VALID,0.430078,
2012-06-09, 00:01:04,VALID,1005.36,VALID,0,VALID,92.4391,VALID,0,VALID,23.7991,VALID,352,VALID,0.412109,
2012-06-09, 00:02:04,VALID,1005.35,VALID,0,VALID,92.5078,VALID,0,VALID,23.7991,VALID,352,VALID,0.412109,
2012-06-09, 00:03:04,VALID,1005.34,VALID,0,VALID,92.6222,VALID,0,VALID,23.7796,VALID,352,VALID,0.401172,
2012-06-09, 00:04:04,VALID,1005.33,VALID,0,VALID,92.6299,VALID,0,VALID,23.8009,VALID,352,VALID,0.455078,
2012-06-09, 00:05:04,VALID,1005.35,VALID,0,VALID,92.6299,VALID,0.0815089,VALID,23.7796,VALID,352,VALID,0.510156,
2012-06-09, 00:06:04,VALID,1005.36,VALID,0,VALID,92.6451,VALID,0.0815089,VALID,23.7796,VALID,352,VALID,0.39375,
2012-06-09, 00:07:04,VALID,1005.31,VALID,0,VALID,92.6756,VALID,0,VALID,23.7601,VALID,352,VALID,0.235547,
2012-06-09, 00:08:04,VALID,1005.33,VALID,0,VALID,92.7138,VALID,0.0815089,VALID,23.7601,VALID,352,VALID,0.392578,
2012-06-09, 00:09:04,VALID,1005.29,VALID,0,VALID,92.7519,VALID,0,VALID,23.7814,VALID,352,VALID,0.171484,
2012-06-09, 00:10:04,VALID,1005.26,VALID,0,VALID,92.7214,VALID,0,VALID,23.7619,VALID,352,VALID,0.364062,
2012-06-09, 00:11:04,VALID,1005.26,VALID,0,VALID,92.7062,VALID,0,VALID,23.7814,VALID,352,VALID,0.472266,
2012-06-09, 00:12:04,VALID,1005.22,VALID,0,VALID,92.6909,VALID,0,VALID,23.7814,VALID,352,VALID,0.396484,
2012-06-09, 00:13:04,VALID,1005.22,VALID,0,VALID,92.5688,VALID,0,VALID,23.7814,VALID,352,VALID,0.0414063,
2012-06-09, 00:14:04,VALID,1005.2,VALID,0,VALID,92.6222,VALID,0,VALID,23.7619,VALID,352,VALID,0,
2012-06-09, 00:15:04,VALID,1005.16,VALID,0,VALID,92.6909,VALID,0,VALID,23.7619,VALID,352,VALID,0,
2012-06-09, 00:16:04,VALID,1005.14,VALID,0,VALID,92.7596,VALID,0,VALID,23.7814,VALID,352,VALID,0,
2012-06-09, 00:17:04,VALID,1005.15,VALID,0,VALID,92.7901,VALID,0,VALID,23.7814,VALID,352,VALID,0,
2012-06-09, 00:18:04,VALID,1005.15,VALID,0,VALID,92.7977,VALID,0,VALID,23.7619,VALID,352,VALID,0,
2012-06-09, 00:19:04,VALID,1005.13,VALID,0,VALID,92.8435,VALID,0,VALID,23.7619,VALID,352,VALID,0,
2012-06-09, 00:20:04,VALID,1005.13,VALID,0,VALID,92.8053,VALID,0,VALID,23.7619,VALID,352,VALID,0,
2012-06-09, 00:21:04,VALID,1005.11,VALID,0,VALID,92.8053,VALID,0,VALID,23.7619,VALID,352,VALID,0,
2012-06-09, 00:22:04,VALID,1005.13,VALID,0,VALID,92.8206,VALID,0,VALID,23.7212,VALID,352,VALID,0,
2012-06-09, 00:23:04,VALID,1005.12,VALID,0,VALID,92.8358,VALID,0,VALID,23.7017,VALID,352,VALID,0,
2012-06-09, 00:24:04,VALID,1005.1,VALID,0,VALID,92.8664,VALID,0,VALID,23.723,VALID,352,VALID,0,
2012-06-09, 00:25:04,VALID,1005.1,VALID,0,VALID,92.9121,VALID,0,VALID,23.723,VALID,352,VALID,0,
2012-06-09, 00:26:04,VALID,1005.09,VALID,0,VALID,92.9961,VALID,0,VALID,23.7425,VALID,352,VALID,0,
2012-06-09, 00:27:04,VALID,1005.1,VALID,0,VALID,92.9579,VALID,0,VALID,23.7407,VALID,352,VALID,0,
2012-06-09, 00:28:04,VALID,1005.09,VALID,0,VALID,92.8969,VALID,0,VALID,23.7637,VALID,352,VALID,0,
2012-06-09, 00:29:04,VALID,1005.11,VALID,0,VALID,92.9198,VALID,0,VALID,23.7637,VALID,352,VALID,0,
2012-06-09, 00:30:04,VALID,1005.08,VALID,0,VALID,92.9121,VALID,0,VALID,23.7425,VALID,352,VALID,0,
2012-06-09, 00:31:04,VALID,1005.08,VALID,0,VALID,92.8969,VALID,0,VALID,23.723,VALID,352,VALID,0,
2012-06-09, 00:32:04,VALID,1005.09,VALID,0,VALID,92.935,VALID,0,VALID,23.7425,VALID,352,VALID,0,
2012-06-09, 00:33:04,VALID,1005.08,VALID,0,VALID,92.9274,VALID,0,VALID,23.7425,VALID,352,VALID,0,
2012-06-09, 00:34:04,VALID,1005.08,VALID,0,VALID,92.9198,VALID,0,VALID,23.723,VALID,352,VALID,0,
2012-06-09, 00:35:04,VALID,1005.07,VALID,0,VALID,92.8816,VALID,0,VALID,23.7035,VALID,352,VALID,0,
2012-06-09, 00:36:04,VALID,1005.07,VALID,0,VALID,92.8969,VALID,0,VALID,23.6841,VALID,352,VALID,0,
2012-06-09, 00:37:04,VALID,1005.06,VALID,0,VALID,93.0342,VALID,0,VALID,23.6646,VALID,352,VALID,0,
2012-06-09, 00:38:04,VALID,1005.05,VALID,0,VALID,93.1334,VALID,0,VALID,23.6646,VALID,352,VALID,0,
2012-06-09, 00:39:04,VALID,1005.07,VALID,0,VALID,93.202,VALID,0,VALID,23.6646,VALID,352,VALID,0,
2012-06-09, 00:40:04,VALID,1005.07,VALID,0,VALID,93.2554,VALID,0,VALID,23.6452,VALID,352,VALID,0,
2012-06-09, 00:41:04,VALID,1005.06,VALID,0,VALID,93.2859,VALID,0,VALID,23.6239,VALID,352,VALID,0,
2012-06-09, 00:42:04,VALID,1005.05,VALID,0,VALID,93.2936,VALID,0,VALID,23.6452,VALID,352,VALID,0,
2012-06-09, 00:43:05,VALID,1005.05,VALID,0,VALID,93.3241,VALID,0,VALID,23.6452,VALID,352,VALID,0,
2012-06-09, 00:44:05,VALID,1005.04,VALID,0,VALID,93.3546,VALID,0,VALID,23.6434,VALID,352,VALID,0,
2012-06-09, 00:45:05,VALID,1005.06,VALID,0,VALID,93.3775,VALID,0,VALID,23.6434,VALID,352,VALID,0,
2012-06-09, 00:46:05,VALID,1005.06,VALID,0,VALID,93.3546,VALID,0,VALID,23.6434,VALID,352,VALID,0,
2012-06-09, 00:47:05,VALID,1005.07,VALID,0,VALID,93.3165,VALID,0,VALID,23.6239,VALID,352,VALID,0,
2012-06-09, 00:48:05,VALID,1005.07,VALID,0,VALID,93.347,VALID,0,VALID,23.6434,VALID,352,VALID,0,
2012-06-09, 00:49:05,VALID,1005.07,VALID,0,VALID,93.3622,VALID,0,VALID,23.6434,VALID,352,VALID,0,
2012-06-09, 00:50:05,VALID,1005.04,VALID,0,VALID,93.408,VALID,0,VALID,23.6239,VALID,352,VALID,0,
2012-06-09, 00:51:05,VALID,1005.02,VALID,0,VALID,93.2859,VALID,0,VALID,23.6062,VALID,352,VALID,0.460547,
2012-06-09, 00:52:05,VALID,1005.02,VALID,0,VALID,93.2859,VALID,0,VALID,23.5655,VALID,352,VALID,0.149219,
2012-06-09, 00:53:05,VALID,1004.98,VALID,0,VALID,93.3699,VALID,0,VALID,23.5478,VALID,352,VALID,0,
2012-06-09, 00:54:05,VALID,1004.97,VALID,0,VALID,93.3928,VALID,0,VALID,23.5478,VALID,352,VALID,0,
2012-06-09, 00:55:05,VALID,1004.98,VALID,0,VALID,93.4309,VALID,0,VALID,23.5266,VALID,352,VALID,0.113281,
2012-06-09, 00:56:05,VALID,1004.95,VALID,0,VALID,93.408,VALID,0,VALID,23.5284,VALID,352,VALID,0.379297,
2012-06-09, 00:57:05,VALID,1004.96,VALID,0,VALID,93.4004,VALID,0,VALID,23.5302,VALID,352,VALID,0.151953,
2012-06-09, 00:58:05,VALID,1004.97,VALID,0,VALID,93.4156,VALID,0,VALID,23.47,VALID,352,VALID,0.115234,
2012-06-09, 00:59:05,VALID,1004.96,VALID,0,VALID,93.4462,VALID,0,VALID,23.4505,VALID,352,VALID,0.171484,
2012-06-09, 01:00:05,VALID,1004.94,VALID,0,VALID,93.5758,VALID,0,VALID,23.4293,VALID,358,VALID,0.470313,
2012-06-09, 01:01:05,VALID,1004.91,VALID,0,VALID,93.6521,VALID,0,VALID,23.4505,VALID,358,VALID,0.579687,
2012-06-09, 01:02:05,VALID,1004.93,VALID,0,VALID,93.7055,VALID,0,VALID,23.4505,VALID,358,VALID,0.594922,
2012-06-09, 01:03:05,VALID,1004.92,VALID,0,VALID,93.7513,VALID,0,VALID,23.4505,VALID,358,VALID,0.307031,
2012-06-09, 01:04:05,VALID,1004.87,VALID,0,VALID,93.7742,VALID,0,VALID,23.4098,VALID,358,VALID,0.328516,
2012-06-09, 01:05:05,VALID,1004.89,VALID,0,VALID,93.7971,VALID,0,VALID,23.4505,VALID,358,VALID,0.283594,
2012-06-09, 01:06:05,VALID,1004.86,VALID,0,VALID,93.8429,VALID,0,VALID,23.4505,VALID,358,VALID,0.152344,
2012-06-09, 01:07:05,VALID,1004.86,VALID,0,VALID,93.8581,VALID,0,VALID,23.4505,VALID,358,VALID,0.294531,
2012-06-09, 01:08:05,VALID,1004.86,VALID,0,VALID,93.8047,VALID,0,VALID,23.3904,VALID,358,VALID,0.194141,
2012-06-09, 01:09:05,VALID,1004.84,VALID,0,VALID,93.7742,VALID,0,VALID,23.4116,VALID,358,VALID,0.146484,
2012-06-09, 01:10:05,VALID,1004.83,VALID,0,VALID,93.7666,VALID,0,VALID,23.3514,VALID,358,VALID,0.129688,
2012-06-09, 01:11:05,VALID,1004.81,VALID,0,VALID,93.8505,VALID,0,VALID,23.3921,VALID,358,VALID,0.199609,
2012-06-09, 01:12:05,VALID,1004.82,VALID,0,VALID,93.9344,VALID,0,VALID,23.4116,VALID,358,VALID,0,
2012-06-09, 01:13:05,VALID,1004.8,VALID,0,VALID,93.9878,VALID,0,VALID,23.4116,VALID,358,VALID,0.176563,
2012-06-09, 01:14:05,VALID,1004.81,VALID,0,VALID,94.0565,VALID,0,VALID,23.4311,VALID,358,VALID,0.372656,
2012-06-09, 01:15:05,VALID,1004.78,VALID,0,VALID,94.1099,VALID,0,VALID,23.4311,VALID,358,VALID,0.365625,
2012-06-09, 01:16:05,VALID,1004.8,VALID,0,VALID,94.0565,VALID,0,VALID,23.4505,VALID,358,VALID,0.332031,
2012-06-09, 01:17:05,VALID,1004.8,VALID,0,VALID,94.0488,VALID,0,VALID,23.4505,VALID,358,VALID,0.362891,
2012-06-09, 01:18:05,VALID,1004.82,VALID,0,VALID,94.0336,VALID,0,VALID,23.4293,VALID,358,VALID,0.457031,
2012-06-09, 01:19:05,VALID,1004.83,VALID,0,VALID,93.9878,VALID,0,VALID,23.4505,VALID,358,VALID,0.35,
2012-06-09, 01:20:05,VALID,1004.81,VALID,0,VALID,93.8657,VALID,0,VALID,23.4293,VALID,358,VALID,0.391406,
2012-06-09, 01:21:05,VALID,1004.8,VALID,0,VALID,93.7666,VALID,0,VALID,23.4311,VALID,358,VALID,0.478516,
2012-06-09, 01:22:05,VALID,1004.79,VALID,0,VALID,93.7284,VALID,0,VALID,23.3904,VALID,358,VALID,0.501562,
2012-06-09, 01:23:05,VALID,1004.81,VALID,0,VALID,93.7818,VALID,0,VALID,23.3904,VALID,358,VALID,0.407813,
2012-06-09, 01:24:05,VALID,1004.79,VALID,0,VALID,93.82,VALID,0,VALID,23.3709,VALID,358,VALID,0.328516,
2012-06-09, 01:25:05,VALID,1004.79,VALID,0,VALID,93.8734,VALID,0,VALID,23.3709,VALID,358,VALID,0.342187,
2012-06-09, 01:26:05,VALID,1004.8,VALID,0,VALID,93.9344,VALID,0,VALID,23.3904,VALID,358,VALID,0.340625,
2012-06-09, 01:27:05,VALID,1004.78,VALID,0,VALID,93.9802,VALID,0,VALID,23.3904,VALID,358,VALID,0.36875,
2012-06-09, 01:28:05,VALID,1004.78,VALID,0,VALID,94.0794,VALID,0,VALID,23.4116,VALID,358,VALID,0.5125,
2012-06-09, 01:29:05,VALID,1004.75,VALID,0,VALID,94.1633,VALID,0,VALID,23.4311,VALID,358,VALID,0.478906,
2012-06-09, 01:30:05,VALID,1004.75,VALID,0,VALID,94.1938,VALID,0,VALID,23.4505,VALID,358,VALID,0.394922,
2012-06-09, 01:31:05,VALID,1004.73,VALID,0,VALID,94.1556,VALID,0,VALID,23.4505,VALID,358,VALID,0.369531,
2012-06-09, 01:32:05,VALID,1004.72,VALID,0,VALID,94.1709,VALID,0,VALID,23.4293,VALID,358,VALID,0.494531,
2012-06-09, 01:33:05,VALID,1004.71,VALID,0,VALID,94.1633,VALID,0,VALID,23.4505,VALID,358,VALID,0.595312,
2012-06-09, 01:34:05,VALID,1004.69,VALID,0,VALID,94.148,VALID,0,VALID,23.4098,VALID,358,VALID,0.600391,
2012-06-09, 01:35:05,VALID,1004.7,VALID,0,VALID,94.1862,VALID,0,VALID,23.4098,VALID,358,VALID,0.685547,
2012-06-09, 01:36:05,VALID,1004.67,VALID,0,VALID,94.1938,VALID,0,VALID,23.4098,VALID,358,VALID,0.634766,
2012-06-09, 01:37:05,VALID,1004.63,VALID,0,VALID,94.2014,VALID,0,VALID,23.4098,VALID,358,VALID,0.4875,
2012-06-09, 01:38:05,VALID,1004.63,VALID,0,VALID,94.1862,VALID,0,VALID,23.4116,VALID,358,VALID,0.497266,
2012-06-09, 01:39:05,VALID,1004.64,VALID,0,VALID,94.1404,VALID,0,VALID,23.3709,VALID,358,VALID,0.583984,
2012-06-09, 01:40:05,VALID,1004.64,VALID,0,VALID,94.148,VALID,0,VALID,23.3514,VALID,358,VALID,0.549609,
2012-06-09, 01:41:05,VALID,1004.62,VALID,0,VALID,94.1785,VALID,0,VALID,23.3514,VALID,358,VALID,0.473828,
2012-06-09, 01:42:05,VALID,1004.59,VALID,0,VALID,94.209,VALID,0,VALID,23.3727,VALID,358,VALID,0.451953,
2012-06-09, 01:43:05,VALID,1004.59,VALID,0,VALID,94.2548,VALID,0,VALID,23.3727,VALID,358,VALID,0.440234,
2012-06-09, 01:44:05,VALID,1004.59,VALID,0,VALID,94.2853,VALID,0,VALID,23.3921,VALID,358,VALID,0.446094,
2012-06-09, 01:45:05,VALID,1004.59,VALID,0,VALID,94.3006,VALID,0,VALID,23.3921,VALID,358,VALID,0.575,
2012-06-09, 01:46:05,VALID,1004.57,VALID,0,VALID,94.3235,VALID,0,VALID,23.3904,VALID,358,VALID,0.56875,
2012-06-09, 01:47:05,VALID,1004.56,VALID,0,VALID,94.2701,VALID,0,VALID,23.4134,VALID,358,VALID,0.469531,
2012-06-09, 01:48:05,VALID,1004.53,VALID,0,VALID,94.2548,VALID,0,VALID,23.332,VALID,358,VALID,0.615234,
2012-06-09, 01:49:05,VALID,1004.55,VALID,0,VALID,94.1938,VALID,0,VALID,23.3337,VALID,358,VALID,0.562109,
2012-06-09, 01:50:05,VALID,1004.53,VALID,0,VALID,94.2014,VALID,0,VALID,23.3125,VALID,358,VALID,0.381641,
2012-06-09, 01:51:05,VALID,1004.55,VALID,0,VALID,94.1862,VALID,0,VALID,23.3143,VALID,358,VALID,0.330078,
2012-06-09, 01:52:05,VALID,1004.53,VALID,0,VALID,94.2167,VALID,0,VALID,23.3143,VALID,358,VALID,0.392578,
2012-06-09, 01:53:05,VALID,1004.55,VALID,0,VALID,94.2853,VALID,0,VALID,23.2931,VALID,358,VALID,0.314453,
2012-06-09, 01:54:05,VALID,1004.53,VALID,0,VALID,94.3082,VALID,0,VALID,23.3143,VALID,358,VALID,0.439453,
2012-06-09, 01:55:05,VALID,1004.56,VALID,0,VALID,94.3845,VALID,0,VALID,23.3125,VALID,358,VALID,0.51875,
2012-06-09, 01:56:05,VALID,1004.57,VALID,0,VALID,94.3998,VALID,0,VALID,23.3532,VALID,358,VALID,0.617969,
2012-06-09, 01:57:05,VALID,1004.59,VALID,0,VALID,94.3998,VALID,0,VALID,23.332,VALID,358,VALID,0.509375,
2012-06-09, 01:58:05,VALID,1004.6,VALID,0,VALID,94.3616,VALID,0,VALID,23.3125,VALID,358,VALID,0.403906,
2012-06-09, 01:59:05,VALID,1004.61,VALID,0,VALID,94.3387,VALID,0,VALID,23.3125,VALID,358,VALID,0.506641,
2012-06-09, 02:00:05,VALID,1004.64,VALID,0,VALID,94.3235,VALID,0,VALID,23.2931,VALID,358,VALID,0.407031,
2012-06-09, 02:01:05,VALID,1004.62,VALID,0,VALID,94.2853,VALID,0,VALID,23.2931,VALID,358,VALID,0.542969,
2012-06-09, 02:02:05,VALID,1004.63,VALID,0,VALID,94.2548,VALID,0,VALID,23.2736,VALID,358,VALID,0.566406,
2012-06-09, 02:03:05,VALID,1004.63,VALID,0,VALID,94.293,VALID,0,VALID,23.2948,VALID,358,VALID,0.609375,
2012-06-09, 02:04:05,VALID,1004.65,VALID,0,VALID,94.354,VALID,0,VALID,23.2736,VALID,358,VALID,0.586719,
2012-06-09, 02:05:05,VALID,1004.62,VALID,0,VALID,94.3616,VALID,0,VALID,23.3355,VALID,358,VALID,0.417188,
2012-06-09, 02:06:05,VALID,1004.61,VALID,0,VALID,94.3464,VALID,0,VALID,23.2736,VALID,358,VALID,0.493359,
2012-06-09, 02:07:05,VALID,1004.59,VALID,0,VALID,94.3387,VALID,0,VALID,23.2736,VALID,358,VALID,0.380078,
2012-06-09, 02:08:05,VALID,1004.59,VALID,0,VALID,94.3769,VALID,0,VALID,23.2736,VALID,358,VALID,0.409766,
2012-06-09, 02:09:05,VALID,1004.59,VALID,0,VALID,94.3692,VALID,0,VALID,23.2931,VALID,358,VALID,0.544141,
2012-06-09, 02:10:05,VALID,1004.58,VALID,0,VALID,94.3616,VALID,0,VALID,23.2948,VALID,358,VALID,0.586719,
2012-06-09, 02:11:05,VALID,1004.55,VALID,0,VALID,94.3769,VALID,0,VALID,23.2948,VALID,358,VALID,0.514063,
2012-06-09, 02:12:05,VALID,1004.55,VALID,0,VALID,94.354,VALID,0,VALID,23.2541,VALID,358,VALID,0.569531,
2012-06-09, 02:13:05,VALID,1004.59,VALID,0,VALID,94.3387,VALID,0,VALID,23.2736,VALID,358,VALID,0.523438,
2012-06-09, 02:14:05,VALID,1004.53,VALID,0,VALID,94.3616,VALID,0,VALID,23.2347,VALID,358,VALID,0.436719,
2012-06-09, 02:15:05,VALID,1004.55,VALID,0,VALID,94.3616,VALID,0,VALID,23.2541,VALID,358,VALID,0.462891,
2012-06-09, 02:16:05,VALID,1004.54,VALID,0,VALID,94.4227,VALID,0,VALID,23.2736,VALID,358,VALID,0.521875,
2012-06-09, 02:17:05,VALID,1004.55,VALID,0,VALID,94.4608,VALID,0,VALID,23.2541,VALID,358,VALID,0.519531,
2012-06-09, 02:18:05,VALID,1004.55,VALID,0,VALID,94.4303,VALID,0,VALID,23.2948,VALID,358,VALID,0.452734,
2012-06-09, 02:19:05,VALID,1004.56,VALID,0,VALID,94.415,VALID,0,VALID,23.2736,VALID,358,VALID,0.520312,
2012-06-09, 02:20:05,VALID,1004.57,VALID,0,VALID,94.4379,VALID,0,VALID,23.2736,VALID,358,VALID,0.541016,
2012-06-09, 02:21:05,VALID,1004.58,VALID,0,VALID,94.4761,VALID,0,VALID,23.2736,VALID,358,VALID,0.592578,
2012-06-09, 02:22:05,VALID,1004.6,VALID,0,VALID,94.4761,VALID,0,VALID,23.2736,VALID,358,VALID,0.5,
2012-06-09, 02:23:05,VALID,1004.57,VALID,0,VALID,94.4684,VALID,0,VALID,23.2736,VALID,358,VALID,0.580078,
2012-06-09, 02:24:05,VALID,1004.55,VALID,0,VALID,94.4989,VALID,0,VALID,23.3143,VALID,358,VALID,0.710547,
2012-06-09, 02:25:05,VALID,1004.56,VALID,0,VALID,94.4913,VALID,0,VALID,23.2931,VALID,358,VALID,0.659375,
2012-06-09, 02:26:05,VALID,1004.53,VALID,0,VALID,94.4913,VALID,0,VALID,23.2931,VALID,358,VALID,0.669141,
2012-06-09, 02:27:05,VALID,1004.53,VALID,0,VALID,94.4989,VALID,0,VALID,23.2931,VALID,353,VALID,0.869531,
2012-06-09, 02:28:05,VALID,1004.54,VALID,0,VALID,94.4608,VALID,0,VALID,23.3143,VALID,350,VALID,0.799609,
2012-06-09, 02:29:05,VALID,1004.54,VALID,0,VALID,94.4532,VALID,0,VALID,23.2736,VALID,347,VALID,0.764844,
2012-06-09, 02:30:05,VALID,1004.51,VALID,0,VALID,94.415,VALID,0,VALID,23.2329,VALID,347,VALID,0.635156,
2012-06-09, 02:31:05,VALID,1004.51,VALID,0,VALID,94.4379,VALID,0,VALID,23.2347,VALID,347,VALID,0.608984,
2012-06-09, 02:32:05,VALID,1004.46,VALID,0,VALID,94.4379,VALID,0,VALID,23.2559,VALID,347,VALID,0.699609,
2012-06-09, 02:33:05,VALID,1004.49,VALID,0,VALID,94.4684,VALID,0,VALID,23.2559,VALID,345,VALID,0.727734,
2012-06-09, 02:34:05,VALID,1004.47,VALID,0,VALID,94.4455,VALID,0,VALID,23.2347,VALID,345,VALID,0.589453,
2012-06-09, 02:35:05,VALID,1004.46,VALID,0,VALID,94.4379,VALID,0,VALID,23.2347,VALID,345,VALID,0.559375,
2012-06-09, 02:36:05,VALID,1004.45,VALID,0,VALID,94.4455,VALID,0,VALID,23.2152,VALID,345,VALID,0.483984,
2012-06-09, 02:37:05,VALID,1004.44,VALID,0,VALID,94.4684,VALID,0,VALID,23.2152,VALID,345,VALID,0.5,
2012-06-09, 02:38:05,VALID,1004.46,VALID,0,VALID,94.4684,VALID,0,VALID,23.2152,VALID,345,VALID,0.519922,
2012-06-09, 02:39:05,VALID,1004.47,VALID,0,VALID,94.4837,VALID,0,VALID,23.2364,VALID,345,VALID,0.644922,
2012-06-09, 02:40:05,VALID,1004.46,VALID,0,VALID,94.4837,VALID,0,VALID,23.2364,VALID,345,VALID,0.608984,
2012-06-09, 02:41:05,VALID,1004.43,VALID,0,VALID,94.5142,VALID,0,VALID,23.2559,VALID,345,VALID,0.576563,
2012-06-09, 02:42:05,VALID,1004.43,VALID,0,VALID,94.5371,VALID,0,VALID,23.2152,VALID,345,VALID,0.563672,
2012-06-09, 02:43:05,VALID,1004.41,VALID,0,VALID,94.5752,VALID,0,VALID,23.2347,VALID,345,VALID,0.684766,
2012-06-09, 02:44:05,VALID,1004.44,VALID,0,VALID,94.5523,VALID,0,VALID,23.2559,VALID,345,VALID,0.391797,
2012-06-09, 02:45:05,VALID,1004.39,VALID,0,VALID,94.5447,VALID,0,VALID,23.2541,VALID,345,VALID,0.464453,
2012-06-09, 02:46:05,VALID,1004.43,VALID,0,VALID,94.5981,VALID,0,VALID,23.2948,VALID,345,VALID,0.458203,
2012-06-09, 02:47:05,VALID,1004.46,VALID,0,VALID,94.6134,VALID,0,VALID,23.2524,VALID,345,VALID,0.433203,
2012-06-09, 02:48:05,VALID,1004.46,VALID,0,VALID,94.6286,VALID,0,VALID,23.3125,VALID,345,VALID,0.557422,
2012-06-09, 02:49:05,VALID,1004.45,VALID,0,VALID,94.6057,VALID,0,VALID,23.3337,VALID,345,VALID,0.525,
2012-06-09, 02:50:05,VALID,1004.46,VALID,0,VALID,94.6134,VALID,0,VALID,23.3532,VALID,345,VALID,0.346484,
2012-06-09, 02:51:05,VALID,1004.42,VALID,0,VALID,94.621,VALID,0,VALID,23.3921,VALID,345,VALID,0.408203,
2012-06-09, 02:52:05,VALID,1004.45,VALID,0,VALID,94.5752,VALID,0,VALID,23.3904,VALID,345,VALID,0.547266,
2012-06-09, 02:53:05,VALID,1004.43,VALID,0,VALID,94.4913,VALID,0,VALID,23.3514,VALID,345,VALID,0.588281,
2012-06-09, 02:54:05,VALID,1004.44,VALID,0,VALID,94.4227,VALID,0,VALID,23.3514,VALID,345,VALID,0.508203,
2012-06-09, 02:55:05,VALID,1004.42,VALID,0,VALID,94.3769,VALID,0,VALID,23.3727,VALID,345,VALID,0.308594,
2012-06-09, 02:56:05,VALID,1004.44,VALID,0,VALID,94.3921,VALID,0,VALID,23.3514,VALID,345,VALID,0.502344,
2012-06-09, 02:57:05,VALID,1004.43,VALID,0,VALID,94.3616,VALID,0,VALID,23.332,VALID,345,VALID,0.489453,
2012-06-09, 02:58:05,VALID,1004.45,VALID,0,VALID,94.3769,VALID,0,VALID,23.3514,VALID,345,VALID,0.596875,
2012-06-09, 02:59:05,VALID,1004.43,VALID,0,VALID,94.4379,VALID,0,VALID,23.3709,VALID,345,VALID,0.445313,
2012-06-09, 03:00:05,VALID,1004.44,VALID,0,VALID,94.3769,VALID,0,VALID,23.3921,VALID,345,VALID,0.616016,
2012-06-09, 03:01:05,VALID,1004.44,VALID,0,VALID,94.3158,VALID,0,VALID,23.3514,VALID,345,VALID,0.446875,
2012-06-09, 03:02:05,VALID,1004.45,VALID,0,VALID,94.3158,VALID,0,VALID,23.3514,VALID,345,VALID,0.366797,
2012-06-09, 03:03:05,VALID,1004.45,VALID,0,VALID,94.3158,VALID,0,VALID,23.332,VALID,345,VALID,0.398438,
2012-06-09, 03:04:05,VALID,1004.45,VALID,0,VALID,94.3158,VALID,0,VALID,23.3532,VALID,345,VALID,0.351563,
2012-06-09, 03:05:05,VALID,1004.49,VALID,0,VALID,94.3158,VALID,0,VALID,23.332,VALID,345,VALID,0.141016,
2012-06-09, 03:06:05,VALID,1004.5,VALID,0,VALID,94.2548,VALID,0,VALID,23.3337,VALID,345,VALID,0,
2012-06-09, 03:07:05,VALID,1004.53,VALID,0,VALID,94.2701,VALID,0,VALID,23.3337,VALID,345,VALID,0,
2012-06-09, 03:08:05,VALID,1004.53,VALID,0,VALID,94.2853,VALID,0,VALID,23.3143,VALID,345,VALID,0,
2012-06-09, 03:09:05,VALID,1004.55,VALID,0,VALID,94.3006,VALID,0,VALID,23.3125,VALID,345,VALID,0,
2012-06-09, 03:10:05,VALID,1004.54,VALID,0,VALID,94.2319,VALID,0,VALID,23.3125,VALID,345,VALID,0,
2012-06-09, 03:11:05,VALID,1004.56,VALID,0,VALID,94.2243,VALID,0,VALID,23.3125,VALID,345,VALID,0,
2012-06-09, 03:12:05,VALID,1004.54,VALID,0,VALID,94.1785,VALID,0,VALID,23.2736,VALID,345,VALID,0,
2012-06-09, 03:13:05,VALID,1004.57,VALID,0,VALID,94.1175,VALID,0,VALID,23.2754,VALID,345,VALID,0,
2012-06-09, 03:14:05,VALID,1004.58,VALID,0,VALID,94.1022,VALID,0,VALID,23.2347,VALID,345,VALID,0,
2012-06-09, 03:15:05,VALID,1004.57,VALID,0,VALID,94.1633,VALID,0,VALID,23.2364,VALID,345,VALID,0,
2012-06-09, 03:16:05,VALID,1004.6,VALID,0,VALID,94.209,VALID,0,VALID,23.2347,VALID,345,VALID,0,
2012-06-09, 03:17:05,VALID,1004.59,VALID,0,VALID,94.2701,VALID,0,VALID,23.2347,VALID,345,VALID,0,
2012-06-09, 03:18:05,VALID,1004.61,VALID,0,VALID,94.2624,VALID,0,VALID,23.2347,VALID,345,VALID,0,
2012-06-09, 03:19:04,VALID,1004.62,VALID,0,VALID,94.2853,VALID,0,VALID,23.2152,VALID,345,VALID,0,
2012-06-09, 03:20:04,VALID,1004.6,VALID,0,VALID,94.2396,VALID,0,VALID,23.1957,VALID,345,VALID,0,
2012-06-09, 03:21:04,VALID,1004.63,VALID,0,VALID,94.2319,VALID,0,VALID,23.1763,VALID,345,VALID,0,
2012-06-09, 03:22:04,VALID,1004.64,VALID,0,VALID,94.2701,VALID,0,VALID,23.1763,VALID,345,VALID,0,
2012-06-09, 03:23:04,VALID,1004.63,VALID,0,VALID,94.3235,VALID,0,VALID,23.1957,VALID,345,VALID,0,
2012-06-09, 03:24:04,VALID,1004.66,VALID,0,VALID,94.3998,VALID,0,VALID,23.217,VALID,345,VALID,0,
2012-06-09, 03:25:04,VALID,1004.65,VALID,0,VALID,94.3998,VALID,0,VALID,23.1957,VALID,345,VALID,0,
2012-06-09, 03:26:04,VALID,1004.63,VALID,0,VALID,94.4608,VALID,0,VALID,23.2347,VALID,345,VALID,0,
2012-06-09, 03:27:04,VALID,1004.62,VALID,0,VALID,94.4303,VALID,0,VALID,23.2152,VALID,345,VALID,0,
2012-06-09, 03:28:04,VALID,1004.64,VALID,0,VALID,94.4455,VALID,0,VALID,23.2347,VALID,345,VALID,0,
2012-06-09, 03:29:04,VALID,1004.63,VALID,0,VALID,94.4532,VALID,0,VALID,23.2347,VALID,345,VALID,0,
2012-06-09, 03:30:04,VALID,1004.6,VALID,0,VALID,94.4989,VALID,0,VALID,23.2347,VALID,345,VALID,0,
2012-06-09, 03:31:04,VALID,1004.6,VALID,0,VALID,94.5447,VALID,0,VALID,23.2736,VALID,345,VALID,0,
2012-06-09, 03:32:04,VALID,1004.59,VALID,0,VALID,94.4989,VALID,0,VALID,23.2736,VALID,345,VALID,0,
2012-06-09, 03:33:04,VALID,1004.59,VALID,0,VALID,94.4684,VALID,0,VALID,23.2736,VALID,345,VALID,0,
2012-06-09, 03:34:04,VALID,1004.57,VALID,0,VALID,94.4989,VALID,0,VALID,23.2736,VALID,345,VALID,0,
2012-06-09, 03:35:04,VALID,1004.56,VALID,0,VALID,94.4913,VALID,0,VALID,23.2736,VALID,345,VALID,0,
2012-06-09, 03:36:04,VALID,1004.57,VALID,0,VALID,94.4608,VALID,0,VALID,23.2736,VALID,345,VALID,0,
2012-06-09, 03:37:04,VALID,1004.54,VALID,0,VALID,94.4303,VALID,0,VALID,23.2541,VALID,345,VALID,0,
2012-06-09, 03:38:04,VALID,1004.58,VALID,0,VALID,94.4303,VALID,0,VALID,23.2541,VALID,345,VALID,0,
2012-06-09, 03:39:04,VALID,1004.54,VALID,0,VALID,94.4532,VALID,0,VALID,23.2754,VALID,345,VALID,0,
2012-06-09, 03:40:04,VALID,1004.57,VALID,0,VALID,94.4532,VALID,0,VALID,23.2541,VALID,345,VALID,0,
2012-06-09, 03:41:04,VALID,1004.58,VALID,0,VALID,94.4379,VALID,0,VALID,23.2541,VALID,345,VALID,0,
2012-06-09, 03:42:04,VALID,1004.58,VALID,0,VALID,94.4913,VALID,0,VALID,23.2541,VALID,345,VALID,0,
2012-06-09, 03:43:04,VALID,1004.6,VALID,0,VALID,94.4608,VALID,0,VALID,23.2541,VALID,345,VALID,0,
2012-06-09, 03:44:04,VALID,1004.6,VALID,0,VALID,94.5066,VALID,0,VALID,23.2754,VALID,345,VALID,0,
2012-06-09, 03:45:04,VALID,1004.6,VALID,0,VALID,94.5218,VALID,0,VALID,23.3143,VALID,345,VALID,0,
2012-06-09, 03:46:04,VALID,1004.61,VALID,0,VALID,94.4837,VALID,0,VALID,23.2718,VALID,345,VALID,0,
2012-06-09, 03:47:04,VALID,1004.6,VALID,0,VALID,94.5142,VALID,0,VALID,23.2736,VALID,345,VALID,0,
2012-06-09, 03:48:04,VALID,1004.63,VALID,0,VALID,94.4761,VALID,0,VALID,23.2931,VALID,345,VALID,0,
2012-06-09, 03:49:04,VALID,1004.63,VALID,0,VALID,94.4455,VALID,0,VALID,23.2948,VALID,345,VALID,0,